Flag for U.S.A. Weather past 2 weeks in Santa Clara, California, U.S.A.

Now
89 °F

Sunny.


Feels Like: 86 °F
Forecast: 57 / 90 °F
Wind: 18 mph from Northwest

Location: San Jose International Airport

Current Time: Jul 28, 2015 at 6:17:13 PM

Latest Report: Jul 28, 2015 at 5:53 PM


Visibility: 10 mi

Pressure: 29.80 "Hg

Humidity: 22%

Dew point: 46 °F

Location of Santa ClaraLocation

Historic Weather in Santa Clara — Graph

°F

Santa Clara temperature yesterday

Maximum temperature yesterday: 85 °F (at 2:53 PM)
Minimum temperature yesterday: 59 °F (at 3:53 AM)
Average temperature yesterday: 71 °F

Past Weeks' High & Low Weather Summary

 TemperatureHumidityPressure
High93 °F (Jul 28, 2:53 PM)90% (Jul 16, 5:53 AM)30.12 "Hg (Jul 16, 5:53 AM)
Low55 °F (Jul 24, 5:53 AM)19% (Jul 28, 2:53 PM)29.76 "Hg (Jul 17, 5:53 PM)
Average69 °F64%29.93 "Hg
* Reported Jul 13 4:53 PM — Jul 28 4:53 PM, Santa Clara, Weather by CustomWeather, © 2015

Note: Actual official high and low records may vary slightly from our data, if they occured in-between our weather recording intervals... More about our weather records

Advertising

Santa Clara weather history for previous 24 hours

 ConditionsComfort  
Time TempWeatherWind HumidityBarometerVisibility
4:53 PM
Tue, Jul 28
89 °FSunny.16 mph25%29.81 "Hg10 mi
3:53 PM93 °FSunny.15 mph20%29.81 "Hg10 mi
2:53 PM93 °FSunny.12 mph19%29.82 "Hg10 mi
1:53 PM91 °FSunny.9 mph20%29.84 "Hg10 mi
12:53 PM89 °FSunny.7 mph27%29.85 "Hg10 mi
11:53 AM85 °FSunny.7 mph34%29.86 "Hg10 mi
10:53 AM81 °FSunny.No wind33%29.87 "Hg10 mi
9:53 AM76 °FSunny.No wind42%29.88 "Hg10 mi
8:53 AM70 °FSunny.No wind51%29.89 "Hg10 mi
7:53 AM65 °FPassing clouds.No wind63%29.89 "Hg10 mi
6:53 AM62 °FClear.No wind73%29.88 "Hg10 mi
5:53 AM60 °FClear.No wind75%29.88 "Hg10 mi
4:53 AM62 °FClear.No wind73%29.87 "Hg10 mi
3:53 AM63 °FClear.No wind70%29.87 "Hg10 mi
2:53 AM63 °FClear.No wind78%29.87 "Hg10 mi
1:53 AM65 °FClear.No wind76%29.87 "Hg10 mi
12:53 AM65 °FClear.No wind76%29.88 "Hg10 mi
11:53 PM
Mon, Jul 27
66 °FClear.No wind73%29.89 "Hg10 mi
10:53 PM67 °FClear.3 mph68%29.90 "Hg10 mi
9:53 PM70 °FClear.5 mph53%29.90 "Hg10 mi
8:53 PM72 °FSunny.7 mph46%29.90 "Hg10 mi
7:53 PM75 °FSunny.10 mph43%29.89 "Hg10 mi
6:53 PM78 °FSunny.14 mph42%29.88 "Hg10 mi
Weather by CustomWeather, © 2015

See weather overviewHow to use our weather pages